OK1UOJ Weather Reports


time (UTC)temp
F
wind
direction
speed
knots
gust
knots
rain 1hr
in
rain 24hr
in
rain mn
in
humidity
%
barometer
mb
20260507211207 53 225 0.0 0.0 0.00 0.00 0.00 10 1017.5
20260507210729 53 225 0.9 1.7 0.00 0.00 0.00 10 1017.5
20260507210257 53 225 0.9 1.7 0.00 0.00 0.00 10 1017.5
20260507210252 53 225 0.9 1.7 0.00 0.00 0.00 10 1017.5
20260507205820 53 230 0.0 0.9 0.00 0.00 0.00 10 1017.3
20260507204422 53 212 0.0 1.7 0.00 0.00 0.00 10 1017.2
20260507203950 53 238 0.0 0.0 0.00 0.00 0.00 10 1017.2
20260507203945 53 238 0.0 0.0 0.00 0.00 0.00 10 1017.2
20260507203513 53 270 0.0 0.0 0.00 0.00 0.00 10 1017.0
20260507202132 53 299 0.0 0.0 0.00 0.00 0.00 10 1016.8
20260507201712 53 228 0.0 0.0 0.00 0.00 0.00 10 1016.8
20260507201643 53 228 0.0 0.0 0.00 0.00 0.00 10 1016.8
20260507201638 53 228 0.0 0.0 0.00 0.00 0.00 10 1016.8
20260507201206 53 225 0.0 0.0 0.00 0.00 0.00 10 1016.8
20260507201201 53 225 0.0 0.0 0.00 0.00 0.00 10 1016.8
20260507200723 53 209 0.9 1.7 0.00 0.00 0.00 10 1016.8
20260507195332 53 263 0.0 0.0 0.00 0.00 0.00 10 1016.6
20260507194854 53 270 0.0 0.0 0.00 0.00 0.00 10 1016.6
20260507193507 53 317 0.9 1.7 0.00 0.00 0.00 10 1016.4
20260507193025 54 306 1.7 1.7 0.00 0.00 0.00 10 1016.4
20260507192547 54 321 1.7 2.6 0.00 0.00 0.00 10 1016.4
20260507191200 0 318 1.7 2.6 0.00 0.00 0.00
20260507191155 55 318 1.7 2.6 0.00 0.00 0.00 10 1016.2
20260507190717 55 324 1.7 1.7 0.00 0.00 0.00 10 1016.1
20260507185808 55 327 1.7 3.5 0.00 0.00 0.00 10 1016.1
20260507185803 55 327 1.7 3.5 0.00 0.00 0.00 10 1016.1
20260507185330 55 330 2.6 3.5 0.00 0.00 0.00 10 1015.9
20260507185325 55 330 2.6 3.5 0.00 0.00 0.00 10 1015.9
20260507184853 55 324 2.6 3.5 0.00 0.00 0.00 10 1015.9
20260507184848 55 324 2.6 3.5 0.00 0.00 0.00 10 1015.9
20260507183933 56 325 5.2 7.0 0.00 0.00 0.00 10 1015.6
20260507183501 56 318 4.3 6.1 0.00 0.00 0.00 10 1015.5
20260507183456 56 318 4.3 6.1 0.00 0.00 0.00 10 1015.5
20260507183018 57 324 4.3 10.4 0.00 0.00 0.00 10 1015.3
20260507182104 58 342 4.3 7.0 0.00 0.00 0.00 10 1015.1
20260507181148 58 321 1.7 2.6 0.00 0.00 0.00 10 1015.0
20260507180233 59 309 2.6 3.5 0.00 0.00 0.00 10 1014.9
20260507175755 59 316 2.6 4.3 0.00 0.00 0.00 10 1014.8
20260507175323 59 327 2.6 6.1 0.00 0.00 0.00 10 1014.7
20260507175318 59 327 2.6 6.1 0.00 0.00 0.00 10 1014.7
20260507174845 60 327 2.6 4.3 0.00 0.00 0.00 10 1014.8
20260507174840 60 327 2.6 4.3 0.00 0.00 0.00 10 1014.8
20260507173930 61 315 2.6 4.3 0.00 0.00 0.00 10 1014.6
20260507173925 61 315 2.6 4.3 0.00 0.00 0.00 10 1014.6
20260507173452 61 328 2.6 4.3 0.00 0.00 0.00 10 101.4
20260507173447 61 328 2.6 4.3 0.00 0.00 0.00 10 1014.6
20260507173014 61 314 3.5 4.3 0.00 0.00 0.00 10 1014.6
20260507173010 61 314 3.5 4.3 0.00 0.00 0.00 10 1014.6
20260507172537 61 327 3.5 5.2 0.00 0.00 0.00 10 1014.5
20260507172532 61 327 3.5 5.2 0.00 0.00 0.00 10 1014.5
20260507172059 61 345 3.5 4.3 0.00 0.00 0.00 97 1014.4
20260507172054 61 345 3.5 4.3 0.00 0.00 0.00 97 1014.4
20260507171621 61 333 2.6 4.3 0.00 0.00 0.00 93 1014.4
20260507171617 61 333 2.6 4.3 0.00 0.00 0.00 93 1014.4
20260507171144 61 329 2.6 4.3 0.00 0.00 0.00 96 1014.3
20260507171139 61 329 2.6 4.3 0.00 0.00 0.00 96 1014.3
20260507170706 62 322 3.5 6.1 0.00 0.00 0.00 95 1014.3
20260507170701 62 322 3.5 6.1 0.00 0.00 0.00 95 1014.3
20260507165746 62 319 2.6 4.3 0.00 0.00 0.00 93 1014.2
20260507165308 62 332 3.5 6.1 0.00 0.00 0.00 90 1014.2
20260507164835 62 318 3.5 6.1 0.00 0.00 0.00 94 1014.2
20260507164830 62 318 3.5 6.1 0.00 0.00 0.00 94 1014.2
20260507164352 62 335 3.5 6.1 0.00 0.00 0.00 92 1014.2
20260507163920 62 319 2.6 5.2 0.00 0.00 0.00 86 1014.1
20260507163915 62 319 2.6 5.2 0.00 0.00 0.00 86 1014.1
20260507163442 62 323 2.6 5.2 0.00 0.00 0.00 92 1014.2
20260507163437 62 323 2.6 5.2 0.00 0.00 0.00 92 1014.2
20260507163004 62 315 3.5 4.3 0.00 0.00 0.00 87 1014.1
20260507162959 62 315 3.5 4.3 0.00 0.00 0.00 87 1014.1
20260507162049 63 322 2.6 7.0 0.00 0.00 0.00 90 1014.1
20260507162044 63 322 2.6 7.0 0.00 0.00 0.00 90 1014.1
20260507161611 63 309 1.7 2.6 0.00 0.00 0.00 95 1014.1
20260507161606 63 309 1.7 2.6 0.00 0.00 0.00 95 1014.1
20260507160655 63 312 2.6 6.1 0.00 0.00 0.00 96 1014.1
20260507160650 63 312 2.6 6.1 0.00 0.00 0.00 96 1014.1
20260507160218 63 325 1.7 3.5 0.00 0.00 0.00 94 1014.0
20260507160213 63 325 1.7 3.5 0.00 0.00 0.00 94 1014.0
20260507155740 64 315 2.6 6.1 0.00 0.00 0.00 93 1014.0
20260507155735 64 315 2.6 6.1 0.00 0.00 0.00 93 1014.0
20260507155306 64 341 4.3 7.8 0.00 0.00 0.00 93 1014.0
20260507155257 64 341 4.3 7.8 0.00 0.00 0.00 93 1014.0
20260507153903 63 328 4.3 7.0 0.00 0.00 0.00 97 1013.9
20260507153431 64 333 4.3 7.0 0.00 0.00 0.00 95 1013.9
20260507153426 64 333 4.3 7.0 0.00 0.00 0.00 95 1013.9
20260507152953 64 327 4.3 7.0 0.00 0.00 0.00 97 1013.9
20260507152948 64 327 4.3 7.0 0.00 0.00 0.00 97 1013.9
20260507152515 65 311 2.6 4.3 0.00 0.00 0.00 96 1013.9
20260507152510 65 311 2.6 4.3 0.00 0.00 0.00 96 1013.9
20260507151554 65 322 4.3 7.0 0.00 0.00 0.00 96 1013.8
20260507151116 66 313 3.5 7.0 0.00 0.00 0.00 88 1013.7
20260507150643 66 306 2.6 7.0 0.00 0.00 0.00 91 1013.8
20260507150637 66 306 2.6 7.0 0.00 0.00 0.00 91 1013.8
20260507145721 65 306 3.5 0.0 0.00 0.00 0.00 94 1013.7
20260507145249 66 336 4.3 6.1 0.00 0.00 0.00 95 1013.7
20260507145244 66 336 4.3 6.1 0.00 0.00 0.00 95 1013.7
20260507144811 66 324 3.5 6.1 0.00 0.00 0.00 91 1013.6
20260507144805 66 324 3.5 6.1 0.00 0.00 0.00 91 1013.6
20260507144332 65 333 4.3 7.0 0.00 0.00 0.00 94 1013.7
20260507144328 65 333 4.3 7.0 0.00 0.00 0.00 94 1013.7
20260507142933 67 295 2.6 4.3 0.00 0.00 0.00 89 1013.7
20260507142017 68 307 2.6 4.3 0.00 0.00 0.00 88 1013.7
20260507141544 66 339 4.3 6.1 0.00 0.00 0.00 96 1013.8
20260507141539 66 339 4.3 6.1 0.00 0.00 0.00 96 1013.8
20260507141100 67 318 3.5 7.0 0.00 0.00 0.00 91 1013.7
20260507140627 68 322 3.5 6.1 0.00 0.00 0.00 89 1013.8
20260507140622 68 322 3.5 6.1 0.00 0.00 0.00 89 1013.8
20260507140149 68 335 2.6 4.3 0.00 0.00 0.00 92 1013.8
20260507140144 68 335 2.6 4.3 0.00 0.00 0.00 92 1013.8
20260507135710 67 324 4.3 6.1 0.00 0.00 0.00 92 1013.8
20260507135705 67 324 4.3 6.1 0.00 0.00 0.00 92 1013.8
20260507134310 66 330 4.3 6.1 0.00 0.00 0.00 91 1013.8
20260507133837 66 343 3.5 6.1 0.00 0.00 0.00 98 1013.8
20260507133832 66 343 3.5 6.1 0.00 0.00 0.00 98 1013.8
20260507133355 65 328 3.5 0.0 0.00 0.00 0.00 89 1013.8
20260507131048 68 327 1.7 2.6 0.00 0.00 0.00 79 1013.9
20260507131043 68 327 1.7 2.6 0.00 0.00 0.00 79 1013.9
20260507130605 69 267 1.7 3.5 0.00 0.00 0.00 72 1014.0
20260507130131 71 321 1.7 3.5 0.00 0.00 0.00 61 1014.0
20260507125213 70 336 4.3 7.8 0.00 0.00 0.00 63 1014.0
20260507125209 70 336 4.3 7.8 0.00 0.00 0.00 63 1014.0
20260507124735 72 309 1.7 4.3 0.00 0.00 0.00 59 1013.9
20260507124730 72 309 1.7 4.3 0.00 0.00 0.00 59 1013.9
20260507124251 73 286 1.7 2.6 0.00 0.00 0.00 60 1013.9
20260507122855 71 311 1.7 4.3 0.00 0.00 0.00 86 1013.9
20260507122421 70 301 1.7 3.5 0.00 0.00 0.00 84 1013.9
20260507122416 70 301 1.7 3.5 0.00 0.00 0.00 84 1013.9
20260507120541 72 274 1.7 4.3 0.00 0.00 0.00 76 1013.9
20260507115624 70 303 2.6 6.1 0.00 0.00 0.00 83 1014.0
20260507115145 72 259 1.7 2.6 0.00 0.00 0.00 78 1013.9
20260507114711 72 298 1.7 4.3 0.00 0.00 0.00 79 1014.0
20260507114706 72 298 1.7 4.3 0.00 0.00 0.00 79 1014.0
20260507114227 71 316 2.6 5.2 0.00 0.00 0.00 77 1014.0
20260507113753 73 303 1.7 2.6 0.00 0.00 0.00 70 1013.9
20260507113748 73 303 1.7 2.6 0.00 0.00 0.00 70 1013.9
20260507112835 73 301 1.7 2.6 0.00 0.00 0.00 81 1013.9
20260507112830 73 301 1.7 2.6 0.00 0.00 0.00 81 1013.9
20260507112356 72 260 1.7 3.5 0.00 0.00 0.00 71 1013.9
20260507112351 72 260 1.7 3.5 0.00 0.00 0.00 71 1013.9
20260507111000 73 209 1.7 3.5 0.00 0.00 0.00 64 1013.8
20260507110955 73 209 1.7 3.5 0.00 0.00 0.00 64 1013.8
20260507110516 72 278 0.9 2.6 0.00 0.00 0.00 78 1013.8
20260507110042 71 319 2.6 6.1 0.00 0.00 0.00 93 1013.8
20260507105558 72 244 1.7 2.6 0.00 0.00 0.00 76 1013.7
20260507105119 71 230 1.7 2.6 0.00 0.00 0.00 90 1013.8
20260507104645 70 228 3.5 4.3 0.00 0.00 0.00 74 1013.8
20260507104640 70 228 3.5 4.3 0.00 0.00 0.00 74 1013.8
20260507104202 71 290 1.7 3.5 0.00 0.00 0.00 87 1013.8
20260507103723 71 336 1.7 4.3 0.00 0.00 0.00 86 1013.8
20260507103249 70 321 1.7 2.6 0.00 0.00 0.00 92 1013.7
20260507103244 70 321 1.7 2.6 0.00 0.00 0.00 92 1013.7
20260507101848 69 305 1.7 2.6 0.00 0.00 0.00 98 1013.7
20260507101409 68 321 1.7 2.6 0.00 0.00 0.00 10 1013.8
20260507100930 69 203 2.6 4.3 0.00 0.00 0.00 91 1013.7
20260507100452 70 270 1.7 4.3 0.00 0.00 0.00 90 1013.8
20260507100018 70 256 1.7 3.5 0.00 0.00 0.00 94 1013.8
20260507100013 70 256 1.7 3.5 0.00 0.00 0.00 94 1013.8
20260507095539 70 226 1.7 3.5 0.00 0.00 0.00 97 1013.8
20260507095534 70 226 1.7 3.5 0.00 0.00 0.00 97 1013.8
20260507095056 69 253 1.7 3.5 0.00 0.00 0.00 96 1013.8
20260507094617 69 260 2.6 4.3 0.00 0.00 0.00 88 1013.7
20260507093700 71 272 1.7 2.6 0.00 0.00 0.00 97 1013.6
20260507092309 67 256 1.7 2.6 0.00 0.00 0.00 10 1013.6
20260507092306 67 256 1.7 2.6 0.00 0.00 0.00 10 1013.6
20260507091825 66 223 2.6 4.3 0.00 0.00 0.00 10 1013.6
20260507091347 66 219 1.7 3.5 0.00 0.00 0.00 10 1013.6
20260507090909 67 219 2.6 3.5 0.00 0.00 0.00 10 1013.5
20260507090430 67 265 1.7 2.6 0.00 0.00 0.00 10 1013.5
20260507085957 67 264 1.7 2.6 0.00 0.00 0.00 10 1013.5
20260507085952 67 264 1.7 2.6 0.00 0.00 0.00 10 1013.5
20260507085513 65 221 1.7 3.5 0.00 0.00 0.00 10 1013.4
20260507084602 63 222 1.7 3.5 0.00 0.00 0.00 10 1013.4
20260507084557 63 222 1.7 3.5 0.00 0.00 0.00 10 1013.4
20260507084119 64 205 1.7 3.5 0.00 0.00 0.00 10 1013.4
20260507083646 63 233 1.7 4.3 0.00 0.00 0.00 10 1013.4
20260507083641 63 233 1.7 4.3 0.00 0.00 0.00 10 1013.4
20260507083203 63 228 2.6 3.5 0.00 0.00 0.00 10 1013.4
20260507082730 63 237 1.7 2.6 0.00 0.00 0.00 10 1013.3
20260507082725 63 237 1.7 2.6 0.00 0.00 0.00 10 1013.3
20260507081809 62 226 1.7 3.5 0.00 0.00 0.00 10 1013.4
20260507081336 62 263 0.9 2.6 0.00 0.00 0.00 10 1013.3
20260507081331 62 263 0.9 2.6 0.00 0.00 0.00 10 1013.3
20260507080853 61 217 2.6 4.3 0.00 0.00 0.00 10 1013.2
20260507080420 60 217 1.7 2.6 0.00 0.00 0.00 10 1013.3
20260507080415 60 217 1.7 2.6 0.00 0.00 0.00 10 1013.3
20260507075942 60 228 3.5 4.3 0.00 0.00 0.00 10 1013.3
20260507075937 60 228 3.5 4.3 0.00 0.00 0.00 10 1013.3
20260507075504 60 225 2.6 3.5 0.00 0.00 0.00 10 1013.3
20260507075459 60 225 2.6 3.5 0.00 0.00 0.00 10 1013.3
20260507074132 60 251 1.7 3.5 0.00 0.00 0.00 10 1013.2
20260507074111 60 251 1.7 3.5 0.00 0.00 0.00 10 1013.2
20260507074106 60 251 1.7 3.5 0.00 0.00 0.00 10 1013.2
20260507073633 60 274 1.7 2.6 0.00 0.00 0.00 10 1013.2
20260507073628 60 274 1.7 2.6 0.00 0.00 0.00 10 1013.2
20260507072239 62 309 1.7 2.6 0.00 0.00 0.00 10 1013.1
20260507072234 62 309 1.7 2.6 0.00 0.00 0.00 10 1013.1
20260507071756 62 214 0.9 2.6 0.00 0.00 0.00 10 1013.2
20260507070846 60 250 2.6 3.5 0.00 0.00 0.00 10 1013.1
20260507070403 60 263 1.7 4.3 0.00 0.00 0.00 10 1013.0
20260507065930 60 276 0.9 2.6 0.00 0.00 0.00 10 1013.0
20260507065925 60 276 0.9 2.6 0.00 0.00 0.00 10 1013.0
20260507065452 60 239 1.7 3.5 0.00 0.00 0.00 10 1013.0
20260507065447 60 239 1.7 3.5 0.00 0.00 0.00 10 1013.0
20260507065015 60 225 2.6 3.5 0.00 0.00 0.00 10 1013.0
20260507065009 60 225 2.6 3.5 0.00 0.00 0.00 10 1013.0
20260507064536 60 267 0.9 1.7 0.00 0.00 0.00 10 1013.0
20260507064531 60 267 0.9 1.7 0.00 0.00 0.00 10 1013.0
20260507064054 60 294 0.9 2.6 0.00 0.00 0.00 10 1012.9
20260507063638 59 295 0.9 2.6 0.00 0.00 0.00 10 1012.8
20260507063616 59 295 0.9 2.6 0.00 0.00 0.00 10 1012.8
20260507063138 59 268 1.7 2.6 0.00 0.00 0.00 10 1012.8
20260507062700 59 294 1.7 2.6 0.00 0.00 0.00 10 1012.6
20260507062223 59 293 1.7 2.6 0.00 0.00 0.00 10 1012.6
20260507061745 60 304 0.9 1.7 0.00 0.00 0.00 10 1012.6
20260507061312 59 233 0.9 1.7 0.00 0.00 0.00 10 1012.6
20260507061307 59 233 0.9 1.7 0.00 0.00 0.00 10 1012.6
20260507060834 59 225 0.9 1.7 0.00 0.00 0.00 10 1012.6
20260507060829 59 225 0.9 1.7 0.00 0.00 0.00 10 1012.6
20260507060356 58 229 0.9 0.9 0.00 0.00 0.00 10 1012.5
20260507060351 58 229 0.9 0.9 0.00 0.00 0.00 10 1012.5
20260507055919 58 308 0.9 1.7 0.00 0.00 0.00 10 1012.4
20260507055914 58 308 0.9 1.7 0.00 0.00 0.00 10 1012.4
20260507055451 57 318 0.9 1.7 0.00 0.00 0.00 10 1012.4
20260507055441 57 318 0.9 1.7 0.00 0.00 0.00 10 1012.4
20260507055436 57 318 0.9 1.7 0.00 0.00 0.00 10 1012.4
20260507055003 57 338 0.9 1.7 0.00 0.00 0.00 10 1012.4
20260507054958 57 338 0.9 1.7 0.00 0.00 0.00 10 1012.4
20260507054521 57 228 0.9 2.6 0.00 0.00 0.00 10 1012.2
20260507054048 57 241 0.9 1.7 0.00 0.00 0.00 10 1012.3
20260507054043 57 241 0.9 1.7 0.00 0.00 0.00 10 1012.3
20260507052218 56 225 0.9 1.7 0.00 0.00 0.00 10 1012.1
20260507052213 56 225 0.9 1.7 0.00 0.00 0.00 10 1012.1
20260507051740 56 241 0.9 2.6 0.00 0.00 0.00 10 1012.1
20260507051735 56 241 0.9 2.6 0.00 0.00 0.00 10 1012.1
20260507051303 56 219 1.7 2.6 0.00 0.00 0.00 10 1012.0
20260507051258 56 219 1.7 2.6 0.00 0.00 0.00 10 1012.0
20260507050343 55 225 1.7 2.6 0.00 0.00 0.00 10 1012.0
20260507045910 55 232 0.9 2.6 0.00 0.00 0.00 10 1011.9
20260507045905 55 232 0.9 2.6 0.00 0.00 0.00 10 1011.9
20260507045432 55 259 0.9 1.7 0.00 0.00 0.00 10 1011.9
20260507045428 55 259 0.9 1.7 0.00 0.00 0.00 10 1011.9
20260507044955 55 231 0.0 1.7 0.00 0.00 0.00 10 1011.8
20260507044950 55 231 0.0 1.7 0.00 0.00 0.00 10 1011.8
20260507044517 54 231 0.0 0.9 0.00 0.00 0.00 10 1011.8
20260507044513 54 231 0.0 0.9 0.00 0.00 0.00 10 1011.8
20260507044040 54 243 0.9 0.9 0.00 0.00 0.00 10 1011.7
20260507044035 54 243 0.9 0.9 0.00 0.00 0.00 10 1011.7
20260507043602 54 225 0.9 0.9 0.00 0.00 0.00 10 1011.7
20260507043558 54 225 0.9 0.9 0.00 0.00 0.00 10 1011.7
20260507042643 53 215 0.9 1.7 0.00 0.00 0.00 10 1011.5
20260507041733 53 180 0.0 0.0 0.00 0.00 0.00 10 1011.5
20260507041728 53 180 0.0 0.0 0.00 0.00 0.00 10 1011.5
20260507041256 52 180 0.0 0.0 0.00 0.00 0.00 10 1011.4
20260507041250 52 180 0.0 0.0 0.00 0.00 0.00 10 1011.4
20260507040818 52 180 0.0 0.9 0.00 0.00 0.00 10 1011.4
20260507040813 52 180 0.0 0.9 0.00 0.00 0.00 10 1011.4
20260507040336 52 180 0.0 0.0 0.00 0.00 0.00 10 1011.3
20260507035903 52 180 0.9 1.7 0.00 0.00 0.00 10 1011.2
20260507035858 52 180 0.9 1.7 0.00 0.00 0.00 10 1011.2
20260507035426 52 180 0.0 1.7 0.00 0.00 0.00 10 1011.2
20260507035421 52 180 0.0 1.7 0.00 0.00 0.00 10 1011.2
20260507034949 52 180 0.0 0.9 0.00 0.00 0.00 10 1011.2
20260507034943 52 180 0.0 0.9 0.00 0.00 0.00 10 1011.2
20260507034507 52 180 0.0 0.0 0.00 0.00 0.00 10 1011.2
20260507034029 52 180 0.0 0.0 0.00 0.00 0.00 10 1011.1
20260507033551 51 180 0.0 0.9 0.00 0.00 0.00 10 1011.0
20260507033114 51 206 0.0 0.9 0.00 0.00 0.00 10 1011.0
20260507032642 51 315 0.0 0.0 0.00 0.00 0.00 10 1011.0
20260507032637 51 315 0.0 0.0 0.00 0.00 0.00 10 1011.0
20260507032159 51 315 0.0 0.9 0.00 0.00 0.00 10 1010.9
20260507031250 51 180 0.0 0.0 0.00 0.00 0.00 10 1010.8
20260507031245 51 180 0.0 0.0 0.00 0.00 0.00 10 1010.8
20260507030812 51 262 0.0 0.0 0.00 0.00 0.00 10 1010.8
20260507030807 51 262 0.0 0.0 0.00 0.00 0.00 10 1010.8
20260507030330 51 225 0.0 0.0 0.00 0.00 0.00 10 1010.8
20260507025910 51 225 0.0 0.0 0.00 0.00 0.00 10 1010.8
20260507025858 51 225 0.0 0.0 0.00 0.00 0.00 10 1010.8
20260507025853 51 225 0.0 0.0 0.00 0.00 0.00 10 1010.8
20260507025012 52 224 0.0 0.0 0.00 0.00 0.00 10 1010.8
20260507024943 52 224 0.0 0.0 0.00 0.00 0.00 10 1010.8
20260507024938 52 224 0.0 0.0 0.00 0.00 0.00 10 1010.8
20260507024501 52 212 0.0 0.9 0.00 0.00 0.00 10 1010.8
20260507023551 52 323 0.9 1.7 0.00 0.00 0.00 10 1010.5
20260507023546 52 323 0.9 1.7 0.00 0.00 0.00 10 1010.5
20260507023109 52 321 0.9 1.7 0.00 0.00 0.00 10 1010.4
20260507022636 53 302 0.9 0.9 0.00 0.00 0.00 10 1010.3
20260507022631 53 302 0.9 0.9 0.00 0.00 0.00 10 1010.3
20260507021239 53 247 0.9 1.7 0.00 0.00 0.00 10 1010.2
20260507020806 53 225 1.7 1.7 0.00 0.00 0.00 10 1010.2
20260507020802 53 225 1.7 1.7 0.00 0.00 0.00 10 1010.2
20260507020330 54 216 1.7 1.7 0.00 0.00 0.00 10 1010.2
20260507020324 54 216 1.7 1.7 0.00 0.00 0.00 10 1010.2
20260507014937 54 180 0.9 0.9 0.00 0.00 0.00 10 1010.0
20260507014932 54 180 0.9 0.9 0.00 0.00 0.00 10 1010.0
20260507014459 54 180 0.9 0.9 0.00 0.00 0.00 10 1010.0
20260507014455 54 180 0.9 0.9 0.00 0.00 0.00 10 1010.0
20260507014022 54 168 0.9 1.7 0.00 0.00 0.00 10 1009.9
20260507014017 54 168 0.9 1.7 0.00 0.00 0.00 10 1009.9
20260507013541 54 151 1.7 1.7 0.00 0.00 0.00 10 1009.9
20260507013108 54 181 0.0 1.7 0.00 0.00 0.00 10 1009.8
20260507013102 54 181 0.0 1.7 0.00 0.00 0.00 10 1009.8
20260507012630 54 270 0.9 0.9 0.00 0.00 0.00 10 1009.9
20260507012625 54 270 0.9 0.9 0.00 0.00 0.00 10 1009.9
20260507011710 54 138 2.6 4.3 0.00 0.00 0.00 10 1009.7
20260507010800 54 145 1.7 2.6 0.00 0.00 0.00 10 1009.8
20260507010755 54 145 1.7 2.6 0.00 0.00 0.00 10 1009.8
20260507010323 54 224 1.7 1.7 0.00 0.00 0.00 10 1009.9
20260507010318 54 224 1.7 1.7 0.00 0.00 0.00 10 1009.9
20260507005841 54 222 0.9 1.7 0.00 0.00 0.00 10 1009.9
20260507005414 54 216 0.9 1.7 0.00 0.00 0.00 10 1009.7
20260507005408 54 216 0.9 1.7 0.00 0.00 0.00 10 1009.7
20260507005403 54 216 0.9 1.7 0.00 0.00 0.00 10 1009.7
20260507004453 54 203 0.9 1.7 0.00 0.00 0.00 10 1009.5
20260507004015 54 93 0.9 2.6 0.00 0.00 0.00 10 1009.4
20260507004011 54 93 0.9 2.6 0.00 0.00 0.00 10 1009.4
20260507003538 54 219 0.0 1.7 0.00 0.00 0.00 10 1009.3
20260507003533 54 219 0.0 1.7 0.00 0.00 0.00 10 1009.3
20260507003116 54 115 0.0 1.7 0.00 0.00 0.00 10 1009.3
20260507003101 54 115 0.0 1.7 0.00 0.00 0.00 10 1009.3
20260507003056 54 115 0.0 1.7 0.00 0.00 0.00 10 1009.3
20260507001708 54 296 0.9 2.6 0.00 0.00 0.00 10 1009.4
20260507001704 54 296 0.9 2.6 0.00 0.00 0.00 10 1009.4
20260507001231 54 276 0.9 1.7 0.00 0.00 0.00 10 1009.3
20260507001226 54 276 0.9 1.7 0.00 0.00 0.00 10 1009.3
20260507000753 54 287 0.9 2.6 0.00 0.00 0.00 10 1009.2
20260507000749 54 287 0.9 2.6 0.00 0.00 0.00 10 1009.2
20260506235839 55 299 0.9 1.7 0.00 0.00 0.00 10 1009.2
20260506235834 55 299 0.9 1.7 0.00 0.00 0.00 10 1009.2
20260506235356 55 321 1.7 4.3 0.00 0.00 0.00 10 1009.1
20260506235005 54 308 1.7 2.6 0.00 0.00 0.00 10 1009.1
20260506234924 54 308 1.7 2.6 0.00 0.00 0.00 10 1009.1
20260506234919 54 308 1.7 2.6 0.00 0.00 0.00 10 1009.1
20260506234447 54 12 0.9 3.5 0.00 0.00 0.00 10 1008.8
20260506234441 54 12 0.9 3.5 0.00 0.00 0.00 10 1008.8
20260506234009 54 317 1.7 2.6 0.00 0.00 0.00 10 1008.7
20260506234004 54 317 1.7 2.6 0.00 0.00 0.00 10 1008.7
20260506233531 54 348 0.9 1.7 0.00 0.00 0.00 10 1008.7
20260506233527 54 348 0.9 1.7 0.00 0.00 0.00 10 1008.7
20260506233054 54 53 0.9 0.9 0.00 0.00 0.00 10 1008.7
20260506233049 54 53 0.9 0.9 0.00 0.00 0.00 10 1008.7
20260506232616 54 332 0.9 1.7 0.00 0.00 0.00 10 1008.7
20260506232612 54 332 0.9 1.7 0.00 0.00 0.00 10 1008.7
20260506231702 54 306 0.9 2.6 0.00 0.00 0.00 10 1009.0
20260506231657 54 306 0.9 2.6 0.00 0.00 0.00 10 1009.0
20260506231219 54 328 2.6 3.5 0.00 0.00 0.00 10 1009.0
20260506230742 54 319 1.7 4.3 0.00 0.00 0.00 10 1008.9
20260506230309 54 315 1.7 2.6 0.00 0.00 0.00 10 1009.0
20260506230304 54 315 1.7 2.6 0.00 0.00 0.00 10 1009.0
20260506225832 54 322 1.7 3.5 0.00 0.00 0.00 10 1009.0
20260506225827 54 322 1.7 3.5 0.00 0.00 0.00 10 1009.0
20260506225414 54 316 1.7 4.3 0.00 0.00 0.00 10 1009.1
20260506225354 54 316 1.7 4.3 0.00 0.00 0.00 10 1009.1
20260506225350 54 316 1.7 4.3 0.00 0.00 0.00 10 1009.1
20260506224917 54 318 2.6 4.3 0.00 0.00 0.00 10 1009.1
20260506224912 54 318 2.6 4.3 0.00 0.00 0.00 10 1009.1
20260506224440 53 301 1.7 2.6 0.00 0.00 0.00 10 1009.2
20260506224435 53 301 1.7 2.6 0.00 0.00 0.00 10 1009.2
20260506223957 53 306 1.7 2.6 0.00 0.00 0.00 10 1009.2
20260506223047 53 295 1.7 2.6 0.00 0.00 0.00 10 1009.2
20260506223042 53 295 1.7 2.6 0.00 0.00 0.00 10 1009.2
20260506222610 53 303 1.7 2.6 0.00 0.00 0.00 10 1009.2
20260506222605 53 303 1.7 2.6 0.00 0.00 0.00 10 1009.2
20260506222132 53 311 1.7 1.7 0.00 0.00 0.00 10 1009.1
20260506222128 53 311 1.7 1.7 0.00 0.00 0.00 10 1009.1
20260506221655 53 296 0.9 1.7 0.00 0.00 0.00 10 1009.0
20260506221650 53 296 0.9 1.7 0.00 0.00 0.00 10 1009.0
20260506221218 53 272 0.9 2.6 0.00 0.00 0.00 10 1008.9
20260506221213 53 272 0.9 2.6 0.00 0.00 0.00 10 1008.9
20260506220740 52 237 0.9 1.7 0.00 0.00 0.00 10 1008.7
20260506220735 52 237 0.9 1.7 0.00 0.00 0.00 10 1008.7
20260506215826 52 288 0.9 2.6 0.00 0.00 0.00 10 1008.3
20260506215821 52 288 0.9 2.6 0.00 0.00 0.00 10 1008.3
20260506214911 52 326 2.6 3.5 0.00 0.00 0.00 10 1007.9
20260506214459 52 322 2.6 3.5 0.00 0.00 0.00 10 1007.9
20260506214433 52 322 2.6 3.5 0.00 0.00 0.00 10 1007.9
20260506214429 52 322 2.6 3.5 0.00 0.00 0.00 10 1007.9
20260506213956 52 344 2.6 4.3 0.00 0.00 0.00 10 1007.8
20260506213951 52 344 2.6 4.3 0.00 0.00 0.00 10 1007.8
20260506213519 52 302 1.7 2.6 0.00 0.00 0.00 10 1007.8
20260506213514 52 302 1.7 2.6 0.00 0.00 0.00 10 1007.8
20260506213041 51 331 1.7 2.6 0.00 0.00 0.00 10 1007.7
20260506213037 51 331 1.7 2.6 0.00 0.00 0.00 10 1007.7